Regional Weather Roundup
Issued by NWS

Home | Current Version | Previous Version | Graphics & Text | Print | Product List | Glossary On
Versions: 1 2 3 4 5 6 7 8 9 10 11 12 13 14 15 16 17 18 19 20 21 22 23 24 25 26 27 28 29 30 31 32 33 34 35 36 37 38 39 40 41 42 43 44 45 46 47 48 49 50
000
ASUS43 KLMK 281710
RWRKY
KENTUCKY REGIONAL WEATHER ROUNDUP
NATIONAL WEATHER SERVICE LOUISVILLE KY
100 PM EDT SUN MAY 28 2017

NOTE "FAIR" INDICATES FEW OR NO CLOUDS BELOW 12,000 FEET
WITH NO SIGNIFICANT WEATHER AND/OR OBSTRUCTIONS TO VISIBILITY.

KYZ001>023-026-027-061>063-070>075-281800-
WESTERN AND SOUTH CENTRAL KENTUCKY

CITY           SKY/WX    TMP DP  RH WIND       PRES   REMARKS
PADUCAH        CLOUDY    73  63  70 W16G25    29.86S
HENDERSON      CLOUDY    70  62  76 W16G25    29.84S
OWENSBORO      CLOUDY    71  63  75 W15       29.84S
HOPKINSVILLE   CLOUDY    72  63  71 W16       29.88R
BOWLING GREEN  PTSUNNY   74  65  73 W13G18    29.87R
GLASGOW        PTSUNNY   71  62  71 SW8       29.88S
$$

KYZ024-025-028>034-038-045-046-053-281800-
NORTH CENTRAL KENTUCKY

CITY           SKY/WX    TMP DP  RH WIND       PRES   REMARKS
LOUISVILLE/SDF PTSUNNY   75  63  66 W12G24    29.81F
LOUISVILLE/LOU CLOUDY    75  64  68 SW9G21    29.82F
FORT KNOX      PTSUNNY   72  62  71 SW15      29.83S
$$

KYZ035>037-039>044-047>052-055>060-089>105-281800-
NORTHEAST KENTUCKY

CITY           SKY/WX    TMP DP  RH WIND       PRES   REMARKS
LEXINGTON      CLOUDY    73  61  65 W13G22    29.85R
COVINGTON      CLOUDY    71  61  70 SW13G21   29.81R
FRANKFORT      PTSUNNY   74  61  63 SW13G21   29.82S
$$

KYZ054-064>069-076>088-106>120-281800-
SOUTHEAST KENTUCKY

CITY           SKY/WX    TMP DP  RH WIND       PRES   REMARKS
JACKSON        CLOUDY    69  62  78 VRB5      29.86F
LONDON         CLOUDY    70  60  70 SW10G20   29.89R
SOMERSET       CLOUDY    70  59  68 W10G22    29.90S
MIDDLESBORO    CLOUDY    71  60  68 S3        29.91F
MONTICELLO     CLOUDY    70  62  76 W22G28    29.91R
$$





USA.gov is the U.S. government's official web portal to all federal, state and local government web resources and services.